FW7413 Weather Reports


Display with metric or nautical units.
time (UTC)temp
F
wind
direction
speed
MPH
gust
MPH
rain 1hr
in
rain 24hr
in
rain mn
in
humidity
%
barometer
mb
20260507101207 46 155 0.0 1.0 0.00 0.00 0.00 73 1020.3
20260507100705 46 155 0.0 0.0 0.00 0.00 0.00 73 1020.1
20260507100203 46 155 0.0 0.0 0.00 0.00 0.00 73 1019.9
20260507095701 45 155 0.0 0.0 0.00 0.00 0.00 73 1019.9
20260507095157 45 155 0.0 0.0 0.00 0.00 0.00 73 1019.8
20260507094653 46 155 0.0 0.0 0.00 0.00 0.00 73 1019.8
20260507094150 46 155 0.0 0.0 0.00 0.00 0.00 73 1019.9
20260507093648 46 155 0.0 0.0 0.00 0.00 0.00 73 1019.8
20260507093146 45 155 0.0 0.0 0.00 0.00 0.00 73 1020.3
20260507092643 45 155 0.0 0.0 0.00 0.00 0.00 72 1019.9
20260507092139 45 155 0.0 0.0 0.00 0.00 0.00 72 1020.1
20260507091636 45 155 0.0 0.0 0.00 0.00 0.00 72 1020.1
20260507091132 45 155 0.0 1.0 0.00 0.00 0.00 72 1020.1
20260507090628 45 155 0.0 0.0 0.00 0.00 0.00 72 1019.8
20260507090125 45 155 0.0 0.0 0.00 0.00 0.00 72 1020.1
20260507085622 45 155 0.0 0.0 0.00 0.00 0.00 72 1019.7
20260507085119 45 155 0.0 0.0 0.00 0.00 0.00 72 1019.9
20260507084615 46 155 0.0 0.0 0.00 0.00 0.00 71 1019.5
20260507084112 46 155 0.0 0.0 0.00 0.00 0.00 71 1019.8
20260507083609 46 155 0.0 0.0 0.00 0.00 0.00 71 1019.9
20260507083106 46 155 0.0 0.0 0.00 0.00 0.00 71 1019.7
20260507082602 46 155 0.0 0.0 0.00 0.00 0.00 71 1019.8
20260507082058 46 154 0.0 0.0 0.00 0.00 0.00 71 1019.8
20260507081554 47 154 0.0 0.0 0.00 0.00 0.00 71 1019.6
20260507081052 46 154 0.0 0.0 0.00 0.00 0.00 71 1020.1
20260507080547 46 154 0.0 0.0 0.00 0.00 0.00 71 1020.1
20260507080044 46 154 0.0 0.0 0.00 0.00 0.00 72 1019.8
20260507075539 46 154 0.0 0.0 0.00 0.00 0.00 71 1019.7
20260507075036 46 154 0.0 0.0 0.00 0.00 0.00 71 1019.8
20260507074533 46 154 0.0 0.0 0.00 0.00 0.00 70 1019.8
20260507074031 46 154 0.0 0.0 0.00 0.00 0.00 70 1019.6
20260507073527 47 154 0.0 0.0 0.00 0.00 0.00 70 1019.9
20260507073024 47 154 0.0 0.0 0.00 0.00 0.00 70 1020.4
20260507072521 47 154 0.0 0.0 0.00 0.00 0.00 69 1020.3
20260507072018 47 154 0.0 0.0 0.00 0.00 0.00 70 1020.4
20260507071516 47 153 0.0 0.0 0.00 0.00 0.00 70 1020.2
20260507071012 47 153 0.0 0.0 0.00 0.00 0.00 70 1020.1
20260507070509 47 152 0.0 0.0 0.00 0.00 0.00 70 1020.2
20260507070010 47 152 0.0 0.0 0.00 0.00 0.00 70 1020.1
20260507065502 47 152 0.0 0.0 0.00 0.00 0.00 69 1019.9
20260507065000 47 152 0.0 0.0 0.00 0.00 0.00 68 1019.7
20260507064458 47 152 0.0 0.0 0.00 0.00 0.00 68 1019.8
20260507063956 47 152 0.0 0.0 0.00 0.00 0.00 68 1020.1
20260507063452 48 152 0.0 0.0 0.00 0.00 0.00 68 1019.9
20260507062949 48 152 0.0 0.0 0.00 0.00 0.00 68 1020.1
20260507062447 48 152 0.0 0.0 0.00 0.00 0.00 68 1020.3
20260507061944 48 152 0.0 0.0 0.00 0.00 0.00 68 1019.9
20260507061442 47 152 0.0 0.0 0.00 0.00 0.00 68 1020.2
20260507060940 48 152 0.0 0.0 0.00 0.00 0.00 67 1020.3
20260507060436 48 152 0.0 0.0 0.00 0.00 0.00 65 1020.7
20260507055933 48 152 0.0 0.0 0.00 0.00 0.00 65 1020.5
20260507055428 48 152 0.0 0.0 0.00 0.00 0.00 65 1020.7
20260507054920 49 152 0.0 0.0 0.00 0.00 0.00 64 1020.7
20260507054416 49 152 0.0 0.0 0.00 0.00 0.00 64 1020.6
20260507053913 50 152 0.0 0.0 0.00 0.00 0.00 64 1020.6
20260507053410 50 152 0.0 0.0 0.00 0.00 0.00 63 1020.6
20260507052909 50 152 0.0 0.0 0.00 0.00 0.00 63 1020.7
20260507052406 50 151 0.0 0.0 0.00 0.00 0.00 63 1020.4
20260507051903 50 148 0.0 0.0 0.00 0.00 0.00 64 1020.3
20260507051401 50 148 0.0 0.0 0.00 0.00 0.00 64 1020.6
20260507050857 50 147 0.0 0.0 0.00 0.00 0.00 64 1020.3
20260507050354 50 147 0.0 0.0 0.00 0.00 0.00 63 1020.4
20260507045851 50 147 0.0 0.0 0.00 0.00 0.00 64 1020.5
20260507045347 50 147 0.0 0.0 0.00 0.00 0.00 63 1020.4
20260507044845 51 147 0.0 0.0 0.00 0.00 0.00 63 1020.5
20260507044341 51 146 0.0 0.0 0.00 0.00 0.00 61 1020.4
20260507043837 51 146 0.0 0.0 0.00 0.00 0.00 61 1020.1
20260507043334 52 145 0.0 0.0 0.00 0.00 0.00 60 1020.4
20260507042830 52 145 0.0 0.0 0.00 0.00 0.00 60 1020.1
20260507042326 52 144 0.0 0.0 0.00 0.00 0.00 59 1020.1
20260507041823 53 139 0.0 0.0 0.00 0.00 0.00 58 1019.8
20260507041319 53 132 1.0 1.0 0.00 0.00 0.00 57 1019.6
20260507040817 53 134 0.0 0.0 0.00 0.00 0.00 57 1018.9
20260507040312 53 98 1.0 2.0 0.00 0.00 0.00 57 1019.1
20260507035808 53 128 0.0 0.0 0.00 0.00 0.00 58 1019.2
20260507035306 53 134 0.0 1.0 0.00 0.00 0.00 58 1018.9
20260507034802 53 137 0.0 0.0 0.00 0.00 0.00 59 1018.9
20260507034259 52 134 0.0 0.0 0.00 0.00 0.00 59 1019.2
20260507033757 52 138 0.0 0.0 0.00 0.00 0.00 59 1019.3
20260507033254 52 140 0.0 0.0 0.00 0.00 0.00 59 1019.3
20260507032751 52 140 0.0 0.0 0.00 0.00 0.00 58 1019.5
20260507032247 52 140 0.0 0.0 0.00 0.00 0.00 58 1019.3
20260507031744 52 140 0.0 0.0 0.00 0.00 0.00 57 1019.2
20260507031241 53 140 0.0 0.0 0.00 0.00 0.00 57 1019.2
20260507030737 53 140 0.0 0.0 0.00 0.00 0.00 57 1019.0
20260507030235 53 139 0.0 0.0 0.00 0.00 0.00 56 1019.1
20260507025732 53 138 0.0 0.0 0.00 0.00 0.00 55 1018.8
20260507025229 54 134 0.0 0.0 0.00 0.00 0.00 55 1018.8
20260507024727 54 133 0.0 0.0 0.00 0.00 0.00 54 1018.8
20260507024224 55 128 0.0 0.0 0.00 0.00 0.00 53 1018.5
20260507023720 55 112 0.0 1.0 0.00 0.00 0.00 53 1018.6
20260507023217 55 125 0.0 0.0 0.00 0.00 0.00 52 1018.6
20260507022714 56 96 0.0 0.0 0.00 0.00 0.00 52 1018.7
20260507022210 56 104 0.0 0.0 0.00 0.00 0.00 51 1018.4
20260507021706 56 130 0.0 1.0 0.00 0.00 0.00 51 1018.4
20260507021201 57 128 1.0 1.0 0.00 0.00 0.00 50 1018.4
20260507020701 57 103 1.0 1.0 0.00 0.00 0.00 50 1018.3
20260507020156 57 110 0.0 0.0 0.00 0.00 0.00 49 1018.4
20260507015654 57 122 0.0 0.0 0.00 0.00 0.00 49 1018.1
20260507015151 58 50 1.0 1.0 0.00 0.00 0.00 48 1018.3
20260507014648 58 96 0.0 1.0 0.00 0.00 0.00 48 1018.0
20260507014144 59 76 3.0 3.0 0.00 0.00 0.00 47 1018.0
20260507013641 59 80 0.0 1.0 0.00 0.00 0.00 47 1017.9
20260507013138 59 107 0.0 1.0 0.00 0.00 0.00 46 1018.0
20260507012636 59 87 1.0 2.0 0.00 0.00 0.00 46 1017.6
20260507012130 60 58 2.0 3.0 0.00 0.00 0.00 45 1017.8
20260507011629 60 81 1.0 1.0 0.00 0.00 0.00 45 1017.4
20260507011125 60 34 3.0 5.0 0.00 0.00 0.00 44 1017.5
20260507010620 61 40 2.0 2.0 0.00 0.00 0.00 44 1017.6
20260507010116 61 8 5.0 6.0 0.00 0.00 0.00 44 1017.4
20260507005614 61 88 0.0 1.0 0.00 0.00 0.00 44 1017.4
20260507005110 61 90 2.0 2.0 0.00 0.00 0.00 43 1017.7
20260507004607 62 83 2.0 3.0 0.00 0.00 0.00 44 1017.6
20260507004104 62 98 1.0 1.0 0.00 0.00 0.00 44 1017.5
20260507003600 62 31 4.0 6.0 0.00 0.00 0.00 44 1017.4
20260507003055 62 115 2.0 3.0 0.00 0.00 0.00 44 1017.3
20260507002552 63 44 4.0 6.0 0.00 0.00 0.00 43 1017.5
20260507002048 63 107 2.0 2.0 0.00 0.00 0.00 43 1017.5
20260507001545 63 320 4.0 7.0 0.00 0.00 0.00 43 1017.4
20260507001042 63 331 4.0 6.0 0.00 0.00 0.00 43 1017.4
20260507000538 64 88 5.0 6.0 0.00 0.00 0.00 42 1017.3
20260507000034 65 66 3.0 3.0 0.00 0.00 0.00 41 1017.0
20260506235532 65 120 2.0 2.0 0.00 0.00 0.00 41 1017.3
20260506235027 64 63 3.0 6.0 0.00 0.00 0.00 41 1016.9
20260506234525 64 79 4.0 6.0 0.00 0.00 0.00 41 1016.9
20260506234022 65 38 5.0 6.0 0.00 0.00 0.00 41 1016.8
20260506233518 65 17 5.0 6.0 0.00 0.00 0.00 41 1016.9
20260506233015 65 65 3.0 5.0 0.00 0.00 0.00 40 1016.8
20260506232511 65 19 4.0 6.0 0.00 0.00 0.00 41 1016.7
20260506232007 64 55 4.0 5.0 0.00 0.00 0.00 41 1016.7
20260506231504 66 72 1.0 1.0 0.00 0.00 0.00 40 1016.7
20260506230956 65 45 4.0 5.0 0.00 0.00 0.00 41 1016.6
20260506230452 66 49 2.0 3.0 0.00 0.00 0.00 40 1016.5
20260506225949 65 89 3.0 5.0 0.00 0.00 0.00 41 1016.6
20260506225446 66 62 3.0 3.0 0.00 0.00 0.00 40 1016.5
20260506224943 66 260 6.0 8.0 0.00 0.00 0.00 41 1016.5
20260506224440 66 104 4.0 5.0 0.00 0.00 0.00 40 1016.3
20260506223936 66 51 5.0 6.0 0.00 0.00 0.00 40 1016.6
20260506223432 66 127 3.0 5.0 0.00 0.00 0.00 41 1016.2
20260506222930 66 100 5.0 6.0 0.00 0.00 0.00 40 1016.3
20260506222426 65 51 4.0 6.0 0.00 0.00 0.00 42 1016.1
20260506221923 66 104 1.0 2.0 0.00 0.00 0.00 42 1016.2
20260506221420 65 285 3.0 3.0 0.00 0.00 0.00 42 1016.0
20260506220918 65 65 2.0 2.0 0.00 0.00 0.00 40 1015.9
20260506220413 65 40 6.0 7.0 0.00 0.00 0.00 40 1015.9
20260506215909 66 128 2.0 3.0 0.00 0.00 0.00 41 1016.1
20260506215406 65 56 2.0 3.0 0.00 0.00 0.00 41 1016.1
20260506214856 65 65 2.0 5.0 0.00 0.00 0.00 41 1016.0
20260506214353 66 77 2.0 3.0 0.00 0.00 0.00 42 1016.2
20260506213851 66 20 4.0 6.0 0.00 0.00 0.00 41 1016.2
20260506213348 66 130 2.0 2.0 0.00 0.00 0.00 41 1016.0
20260506212846 66 89 1.0 1.0 0.00 0.00 0.00 41 1016.1
20260506212341 64 63 3.0 3.0 0.00 0.00 0.00 44 1016.4
20260506211836 64 31 5.0 8.0 0.00 0.00 0.00 43 1016.4
20260506211332 64 100 2.0 3.0 0.00 0.00 0.00 44 1016.4
20260506210830 65 67 4.0 6.0 0.00 0.00 0.00 44 1016.4
20260506210327 65 72 3.0 3.0 0.00 0.00 0.00 44 1016.8
20260506205824 65 52 5.0 7.0 0.00 0.00 0.00 45 1016.7
20260506205320 64 302 5.0 8.0 0.00 0.00 0.00 46 1016.6
20260506204817 63 57 6.0 8.0 0.00 0.00 0.00 45 1016.6
20260506204314 63 54 1.0 2.0 0.00 0.00 0.00 45 1017.0
20260506203812 65 41 5.0 6.0 0.00 0.00 0.00 44 1016.7
20260506203309 65 46 4.0 6.0 0.00 0.00 0.00 44 1016.8
20260506202806 65 84 4.0 5.0 0.00 0.00 0.00 45 1016.8
20260506202305 64 88 3.0 3.0 0.00 0.00 0.00 47 1017.0
20260506201753 64 61 3.0 5.0 0.00 0.00 0.00 45 1016.9
20260506201250 63 59 1.0 2.0 0.00 0.00 0.00 47 1017.2
20260506200747 63 55 1.0 2.0 0.00 0.00 0.00 46 1017.0
20260506200243 64 56 3.0 5.0 0.00 0.00 0.00 47 1017.3
20260506195740 63 3 6.0 7.0 0.00 0.00 0.00 46 1017.0
20260506195236 63 20 5.0 7.0 0.00 0.00 0.00 47 1017.0
20260506194734 63 71 0.0 2.0 0.00 0.00 0.00 49 1017.3
20260506194230 62 55 7.0 8.0 0.00 0.00 0.00 48 1017.2
20260506193728 62 71 2.0 2.0 0.00 0.00 0.00 49 1017.5
20260506193224 61 85 0.0 1.0 0.00 0.00 0.00 49 1017.2
20260506192721 61 33 5.0 6.0 0.00 0.00 0.00 50 1017.4
20260506192218 61 73 2.0 3.0 0.00 0.00 0.00 51 1017.7
20260506191715 61 348 4.0 5.0 0.00 0.00 0.00 49 1017.7
20260506191210 61 44 2.0 3.0 0.00 0.00 0.00 50 1017.5
20260506190708 61 42 2.0 3.0 0.00 0.00 0.00 49 1017.7
20260506190204 60 65 2.0 2.0 0.00 0.00 0.00 49 1017.6
20260506185702 60 77 2.0 3.0 0.00 0.00 0.00 49 1017.6
20260506185158 61 20 4.0 5.0 0.00 0.00 0.00 48 1017.8
20260506184656 61 118 2.0 6.0 0.00 0.00 0.00 48 1017.8
20260506184153 61 151 1.0 2.0 0.00 0.00 0.00 50 1017.6
20260506183650 62 63 3.0 5.0 0.00 0.00 0.00 48 1017.7
20260506183145 61 90 1.0 3.0 0.00 0.00 0.00 48 1017.9
20260506182643 61 65 5.0 7.0 0.00 0.00 0.00 48 1017.9
20260506182140 61 93 2.0 3.0 0.00 0.00 0.00 49 1017.7
20260506181638 61 28 3.0 3.0 0.00 0.00 0.00 50 1018.1
20260506181134 61 70 2.0 2.0 0.00 0.00 0.00 49 1018.0
20260506180631 60 306 3.0 6.0 0.00 0.00 0.00 50 1018.2
20260506180128 60 133 1.0 3.0 0.00 0.00 0.00 50 1018.3
20260506175624 60 122 2.0 5.0 0.00 0.00 0.00 50 1018.3
20260506175120 61 25 5.0 7.0 0.00 0.00 0.00 48 1018.1
20260506174619 61 156 1.0 1.0 0.00 0.00 0.00 51 1018.0
20260506174115 62 138 1.0 2.0 0.00 0.00 0.00 49 1018.2
20260506173613 60 155 0.0 1.0 0.00 0.00 0.00 52 1018.3
20260506173109 60 59 2.0 2.0 0.00 0.00 0.00 49 1018.0
20260506172608 59 71 2.0 2.0 0.00 0.00 0.00 53 1018.5
20260506172103 59 98 4.0 5.0 0.00 0.00 0.00 51 1018.6
20260506171601 58 63 3.0 3.0 0.00 0.00 0.00 51 1018.3
20260506171058 59 80 3.0 5.0 0.00 0.00 0.00 50 1018.4
20260506170556 58 77 2.0 3.0 0.00 0.00 0.00 52 1018.3
20260506170053 59 33 3.0 6.0 0.00 0.00 0.00 50 1018.4
20260506165552 58 42 5.0 10.0 0.00 0.00 0.00 51 1018.4
20260506165047 59 4 7.0 11.0 0.00 0.00 0.00 50 1018.3
20260506164545 59 5 7.0 9.0 0.00 0.00 0.00 49 1018.3
20260506164042 60 144 5.0 8.0 0.00 0.00 0.00 47 1018.6
20260506163537 60 14 2.0 6.0 0.00 0.00 0.00 49 1018.4
20260506163033 59 128 2.0 3.0 0.00 0.00 0.00 50 1018.3
20260506162530 59 109 3.0 7.0 0.00 0.00 0.00 50 1018.6
20260506162027 59 102 5.0 9.0 0.00 0.00 0.00 50 1018.5
20260506161525 59 128 1.0 3.0 0.00 0.00 0.00 50 1018.7
20260506161021 59 157 4.0 7.0 0.00 0.00 0.00 50 1018.5
20260506160519 57 43 1.0 2.0 0.00 0.00 0.00 54 1018.3
20260506160017 57 18 4.0 7.0 0.00 0.00 0.00 53 1018.4
20260506155515 56 0 3.0 6.0 0.00 0.00 0.00 53 1018.4
20260506153652 55 38 5.0 7.0 0.00 0.00 0.00 56 1017.9
20260506153149 54 120 5.0 8.0 0.00 0.00 0.00 56 1018.1
20260506152646 54 117 8.0 10.0 0.00 0.00 0.00 55 1018.1
20260506152143 54 29 4.0 5.0 0.00 0.00 0.00 57 1018.1
20260506151642 54 10 5.0 6.0 0.00 0.00 0.00 57 1018.1
20260506151138 54 58 3.0 5.0 0.00 0.00 0.00 59 1018.3
20260506150635 53 87 4.0 5.0 0.00 0.00 0.00 61 1018.2
20260506150132 53 1 7.0 9.0 0.00 0.00 0.00 61 1018.2
20260506145629 53 51 5.0 8.0 0.00 0.00 0.00 61 1018.0
20260506145126 52 109 2.0 2.0 0.00 0.00 0.00 64 1018.2
20260506144623 52 16 8.0 13.0 0.00 0.00 0.00 63 1018.2
20260506144120 52 53 1.0 2.0 0.00 0.00 0.00 65 1018.2
20260506143618 51 21 7.0 9.0 0.00 0.00 0.00 66 1017.7
20260506143115 51 65 3.0 5.0 0.00 0.00 0.00 67 1017.6
20260506142614 51 27 3.0 3.0 0.00 0.00 0.00 68 1017.8
20260506142112 51 34 2.0 5.0 0.00 0.00 0.00 67 1017.6
20260506141608 50 51 2.0 2.0 0.00 0.00 0.00 68 1017.8
20260506141107 50 69 1.0 1.0 0.00 0.00 0.00 69 1017.7
20260506140604 50 13 5.0 6.0 0.00 0.00 0.00 69 1017.8
20260506135558 50 68 3.0 5.0 0.00 0.00 0.00 70 1017.8
20260506135054 50 102 3.0 3.0 0.00 0.00 0.00 70 1017.7
20260506134551 49 42 2.0 5.0 0.00 0.00 0.00 71 1017.6
20260506134046 49 69 3.0 6.0 0.00 0.00 0.00 71 1017.9
20260506133544 49 38 4.0 5.0 0.00 0.00 0.00 71 1018.1
20260506133041 49 57 4.0 5.0 0.00 0.00 0.00 72 1017.9
20260506132538 49 53 6.0 8.0 0.00 0.00 0.00 72 1017.9
20260506132035 49 2 8.0 11.0 0.00 0.00 0.00 72 1018.2
20260506131532 49 137 0.0 1.0 0.00 0.00 0.00 73 1018.4
20260506131029 49 18 3.0 8.0 0.00 0.00 0.00 73 1018.3
20260506130526 49 61 3.0 6.0 0.00 0.00 0.00 73 1018.2
20260506130023 49 61 3.0 6.0 0.00 0.00 0.00 73 1017.9
20260506125521 49 50 4.0 7.0 0.00 0.00 0.00 73 1017.6
20260506125019 49 72 3.0 5.0 0.00 0.00 0.00 72 1017.8
20260506124516 49 64 3.0 6.0 0.00 0.00 0.00 73 1017.9
20260506124014 49 37 2.0 2.0 0.00 0.00 0.00 73 1017.7
20260506123512 48 53 2.0 2.0 0.00 0.00 0.00 73 1017.7
20260506123010 48 102 2.0 3.0 0.00 0.00 0.00 73 1017.4
20260506122506 48 47 7.0 8.0 0.00 0.00 0.00 74 1017.0
20260506122004 48 28 3.0 5.0 0.00 0.00 0.00 74 1017.0
20260506121501 48 58 2.0 3.0 0.00 0.00 0.00 74 1017.0
20260506120958 48 123 2.0 3.0 0.00 0.00 0.00 74 1016.5
20260506120456 48 40 2.0 3.0 0.00 0.00 0.00 74 1016.7
20260506115953 48 58 2.0 3.0 0.00 0.00 0.00 74 1016.5
20260506115451 48 56 4.0 5.0 0.00 0.00 0.00 74 1016.2
20260506114949 48 80 1.0 3.0 0.00 0.00 0.00 74 1016.6
20260506114446 48 64 2.0 3.0 0.00 0.00 0.00 74 1016.6
20260506113944 48 53 1.0 2.0 0.00 0.00 0.00 74 1016.7
20260506113442 48 54 3.0 3.0 0.00 0.00 0.00 74 1016.4
20260506112938 48 83 2.0 3.0 0.00 0.00 0.00 74 1016.3
20260506112436 48 52 2.0 2.0 0.00 0.00 0.00 74 1016.7
20260506111933 48 33 3.0 3.0 0.00 0.00 0.00 74 1016.2
20260506111431 48 107 2.0 2.0 0.00 0.00 0.00 74 1016.0
20260506110928 48 31 5.0 8.0 0.00 0.00 0.00 74 1016.2
20260506110426 48 36 1.0 1.0 0.00 0.00 0.00 73 1016.2
20260506105922 48 40 3.0 3.0 0.00 0.00 0.00 73 1015.9
20260506105418 48 81 0.0 1.0 0.00 0.00 0.00 73 1016.2
20260506104910 48 56 1.0 2.0 0.00 0.00 0.00 72 1016.2
20260506104408 48 347 2.0 5.0 0.00 0.00 0.00 72 1016.3
20260506103906 48 54 2.0 3.0 0.00 0.00 0.00 72 1016.7
20260506103403 48 88 1.0 2.0 0.00 0.00 0.00 72 1016.9
20260506102900 48 84 2.0 3.0 0.00 0.00 0.00 72 1017.2
20260506102358 48 73 0.0 1.0 0.00 0.00 0.00 71 1017.0
20260506101854 49 15 3.0 3.0 0.00 0.00 0.00 71 1016.5